This demonstration page uses our WeatherBlox Daily Observations layout. Learn more.

Left ArrowRight Arrow

44.89941, -97.11507

Hourly Observations for July 10, 2016

Temp ( °F °C ) Dew Point ( °F °C ) Humidity (%) Winds ( mph kmh ) Pressure ( in mb ) Visibility ( mi km ) Precip ( " mm )
12:53 am 00:53 Partly Cloudy 75 23.9 70 21.1 84 84 S 15 24 29.77 1008 10 16 0.00 0.00
1:48 am 01:48 Mostly Clear with Nearby Thunderstorms 75 24 72 22 89 89 S 13 20 29.74 1007 10 16 0.00 0.00
1:53 am 01:53 Mostly Clear with Nearby Thunderstorms 75 23.9 71 21.7 88 88 S 14 22 29.79 1009 10 16 0.00 0.00
2:03 am 02:03 Partly Cloudy 75 23.9 71 21.7 88 88 S 9 15 29.80 1009 10 16 0.00 0.00
2:15 am 02:15 Mostly Cloudy with Nearby Thunderstorms 75 23.9 71 21.7 88 88 SSE 7 11 29.80 1009 10 16 0.00 0.00
2:25 am 02:25 Mostly Cloudy with Thunderstorms 76 24.4 71 21.7 85 85 W 16 26 29.80 1009 4 6 0.00 0.00
2:29 am 02:29 Cloudy with Strong Thunderstorms 75 23.9 72 22.2 90 90 SW 20 31 29.85 1011 2 3 0.13 3.30
2:36 am 02:36 Cloudy with Strong Thunderstorms 74 23.3 70 21.1 88 88 NNE 31 50 29.88 1012 3 4 0.19 4.83
2:38 am 02:38 Cloudy with Strong Thunderstorms 71 21.7 68 20 90 90 NNE 23 37 29.88 1012 3 5 0.21 5.33
2:41 am 02:41 Cloudy with Strong Thunderstorms 67 19.4 64 17.8 91 91 NE 24 39 29.91 1013 3 4 0.26 6.60
2:53 am 02:53 Cloudy with Thunderstorms 66 18.9 63 17.2 90 90 NNE 17 28 29.92 1013 3 5 0.35 8.89
3:07 am 03:07 Cloudy with Thunderstorms 65 18.3 63 17.2 93 93 ENE 17 28 29.91 1013 6 10 0.03 0.76
3:17 am 03:17 Cloudy with Thunderstorms 65 18.3 62 16.7 90 90 ENE 16 26 29.91 1013 9 14 0.03 0.76
3:33 am 03:33 Cloudy with Nearby Thunderstorms 65 18.3 62 16.7 90 90 ENE 22 35 29.85 1011 9 14 0.05 1.27
3:50 am 03:50 Mostly Cloudy with Light Rain 64 18 63 17 94 94 ENE 29 46 29.80 1009 10 16 0.06 1.52
3:53 am 03:53 Mostly Cloudy with Light Rain 65 18.3 62 16.7 90 90 ENE 25 41 29.81 1010 10 16 0.06 1.52
4:15 am 04:15 Partly Cloudy 65 18.3 62 16.7 90 90 E 18 30 29.85 1011 10 16 0.00 0.03
4:25 am 04:25 Mostly Cloudy with Nearby Thunderstorms 65 18.3 62 16.7 90 90 E 15 24 29.85 1011 10 16 0.00 0.03
4:53 am 04:53 Mostly Cloudy with Thunderstorms 65 18.3 62 16.7 90 90 SE 9 15 29.84 1011 10 16 0.00 0.03
5:14 am 05:14 Mostly Cloudy with Nearby Thunderstorms 65 18.3 62 16.7 90 90 SE 14 22 29.85 1011 10 16 0.01 0.25
5:44 am 05:44 Mostly Cloudy with Thunderstorms 65 18.3 62 16.7 90 90 SSE 16 26 29.85 1011 9 14 0.07 1.78
5:53 am 05:53 Mostly Cloudy with Thunderstorms 65 18.3 62 16.7 90 90 SSE 13 20 29.86 1011 10 16 0.07 1.78
6:05 am 06:05 Mostly Cloudy with Nearby Thunderstorms 65 18.3 62 16.7 90 90 S 13 20 29.85 1011 10 16 0.01 0.25
6:53 am 06:53 Mostly Cloudy with Strong Thunderstorms 65 18.3 61 16.1 87 87 SSE 18 30 29.79 1009 7 11 0.09 2.29
7:30 am 07:30 Cloudy with Nearby Thunderstorms 65 18.3 62 16.7 90 90 S 10 17 29.80 1009 10 16 0.03 0.76
7:38 am 07:38 Cloudy with Thunderstorms 65 18.3 62 16.7 90 90 SSW 17 28 29.83 1010 9 14 0.05 1.27
7:53 am 07:53 Cloudy with Thunderstorms 66 18.9 62 16.7 87 87 SSE 14 22 29.81 1010 9 14 0.12 3.05
8:13 am 08:13 Cloudy with Nearby Thunderstorms 65 18.3 62 16.7 90 90 S 8 13 29.83 1010 7 11 0.09 2.29
8:48 am 08:48 Mostly Cloudy with Thunderstorms 64 18 63 17 94 94 S 12 19 29.83 1010 10 16 0.13 3.30
8:53 am 08:53 Mostly Cloudy with Thunderstorms 65 18.3 62 16.7 90 90 S 8 13 29.83 1010 10 16 0.13 3.30
9:03 am 09:03 Mostly Cloudy with Nearby Thunderstorms 65 18.3 63 17.2 93 93 S 10 17 29.83 1010 10 16 0.01 0.25
9:26 am 09:26 Mostly Cloudy with Light Rain 65 18.3 62 16.7 90 90 SSE 18 30 29.80 1009 10 16 0.02 0.51
9:53 am 09:53 Mostly Cloudy 66 18.9 63 17.2 90 90 S 20 31 29.81 1009 10 16 0.02 0.51
10:53 am 10:53 Mostly Cloudy 68 20 63 17.2 84 84 S 12 19 29.80 1009 10 16 0.00 0.00
11:53 am 11:53 Sunny 74 23.3 64 17.8 71 71 S 15 24 29.76 1008 10 16 0.00 0.00
12:53 pm 12:53 Mostly Sunny 80 26.7 64 17.8 58 58 S 21 33 29.74 1007 10 16 0.00 0.00
1:53 pm 13:53 Mostly Cloudy 82 27.8 65 18.3 56 56 S 17 28 29.72 1007 10 16 0.00 0.00
2:53 pm 14:53 Sunny 83 28.3 65 18.3 55 55 SSE 17 28 29.73 1007 10 16 0.00 0.00
3:53 pm 15:53 Sunny 82 27.8 66 18.9 58 58 SSE 12 19 29.73 1007 10 16 0.00 0.00
4:53 pm 16:53 Cloudy 79 26.1 68 20 69 69 S 7 11 29.76 1008 10 16 0.00 0.00
5:53 pm 17:53 Sunny 76 24.4 68 20 77 77 SSE 14 22 29.70 1006 10 16 0.00 0.03
6:53 pm 18:53 Sunny 79 26.1 70 21.1 74 74 SSE 16 26 29.66 1004 10 16 0.00 0.00
7:53 pm 19:53 Sunny 78 25.6 69 20.6 74 74 ESE 10 17 29.67 1005 10 16 0.00 0.00
8:53 pm 20:53 Sunny 77 25 70 21.1 79 79 SE 9 15 29.65 1004 10 16 0.00 0.00
9:53 pm 21:53 Clear 76 24.4 71 21.7 85 85 ESE 9 15 29.65 1004 10 16 0.00 0.00
10:53 pm 22:53 Partly Cloudy 76 24.4 72 22.2 88 88 SE 12 19 29.62 1003 10 16 0.00 0.00
11:53 pm 23:53 Mostly Clear 76 24.4 72 22.2 88 88 SE 15 24 29.60 1002 10 16 0.00 0.00

Powered by AerisWeather